Regional Weather Roundup
Issued by NWS Bismarck, ND

Home | Current Version | Previous Version | Text Only | Print | Product List | Glossary On
Versions: 1 2 3 4 5 6 7 8 9 10 11 12 13 14 15 16 17 18 19 20 21 22 23 24 25 26 27 28 29 30 31 32 33 34 35 36 37 38 39 40 41 42 43 44 45 46 47 48 49 50
000
ASUS43 KBIS 222301
RWRBIS

NWR BROADCAST TEXT
NATIONAL WEATHER SERVICE BISMARCK ND
600 PM CDT FRI MAY 22 2015

NOTE: "FAIR" INDICATES FEW OR NO CLOUDS BELOW 12,000 FEET WITH NO
SIGNIFICANT WEATHER AND/OR OBSTRUCTIONS TO VISIBILITY.


CITY           SKY/WX    TMP DP  RH WIND       PRES   REMARKS
WILLISTON      SUNNY     76  32  20 SE15G25   30.03F
MINOT          PTSUNNY   76  30  18 E6        30.07F
MINOT AFB      PTSUNNY   79  35  20 SE10      30.06F
BISMARCK       MOSUNNY   74  37  26 SE15G23   30.08F
DICKINSON      MOSUNNY   70  34  26 SE22G28   30.04F
GARRISON         N/A     75  34  22 S15       30.08F
HETTINGER ARPT MOSUNNY   67  34  29 SE21G30   30.06F
JAMESTOWN      NOT AVBL
CARRINGTON     FAIR      73  37  27 SE12      30.12F
HAZEN          FAIR      72  36  26 S14G21    30.08S
OAKES            N/A     73  39  29 S5        30.12F
STANLEY        FAIR      73  36  25 S17G24    30.08F
$$

CITY           SKY/WX    TMP DP  RH WIND       PRES   REMARKS
GRAND FORKS    MOSUNNY   77  35  21 VRB6      30.11F
GRAND FORKS AF SUNNY     77  38  24 S7        30.12F
DEVILS LAKE    SUNNY     75  34  22 SE13      30.11F
FARGO          SUNNY     75  40  28 S9        30.13F
CAVALIER       FAIR      77  39  25 SW12      30.09S
GRAFTON        FAIR      77  39  25 W7G15     30.11F
LANGDON        FAIR      75  34  22 SW13G20   30.12F
ROLLA          FAIR      73  28  19 S15       30.11F
WALHALLA       FAIR      75  39  27 E5        30.09S
$$

CITY           SKY/WX    TMP DP  RH WIND       PRES   REMARKS
ABERDEEN       CLOUDY    76  37  24 S8        30.10F
MOBRIDGE       PTSUNNY   74  40  29 S21       30.06F
RAPID CITY     CLOUDY    59  42  53 S16       30.06F
GLASGOW        CLOUDY    72  40  31 SE18G25   29.96F
SIDNEY         MOSUNNY   75  30  19 SE14      30.01F
WOLF POINT     PTSUNNY   74  39  28 SE13G18   29.98F
GLENDIVE       CLOUDY    70  39  32 SE13G23   30.00F
MILES CITY     CLOUDY    70  43  37 SE18G28   29.95F
BAKER          CLOUDY    70  39  32 S18G28    30.02F
$$

CITY           SKY/WX    TMP DP  RH WIND       PRES   REMARKS
BILLINGS       PTSUNNY   69  45  41 E14       29.89F
GREAT FALLS    MOSUNNY   70  37  29 VRB5      29.91F
$$



USA.gov is the U.S. government's official web portal to all federal, state and local government web resources and services.